www.pogodaiklimat.ru

Погода и климат >> Архив погоды >> Япония >> Омурайсу


ПОГОДА в Омурайсу

  • Прогноз погоды в Омурайсу
  • Монитор погоды в Омурайсу

АРХИВ ПОГОДЫ в Омурайсу

Время (UTC), дата Ветер
(напр.,м/с)
 
Видим.   Явления Облачность Т
(С)
Тd
(С)
f
(%)
Тe
(С)
Тes
(С)
Комфортность P
(гПа)
Po
(гПа)
Тmin
(С)
Tmax
(С)
R
(мм)
R24
(мм)
S
(см)
10 16.07 ЮВ 2 13 км в посл. час дождь н/о +16.9 +15.8 93 +17 +17 1015.1 1013.2
11 16.07 ЮВ 1 12 км н/о +16.8 +16.0 95 +18 +18 1015.4 1013.5
12 16.07 ЮЗ 1 10 км {дождь} н/о +16.8 +16.2 96 +18 +18 1015.6 1013.7 +19.0 0.0
13 16.07 Ю 1 11 км н/о +17.0 +16.2 95 +18 +18 1015.5 1013.6
14 16.07 Ю 1 7000 м в посл. час дождь н/о +17.3 +16.8 97 +18 +18 1015.1 1013.2
15 16.07 штиль 0 10 км {дождь} н/о +17.2 +16.9 98 +17 +17 1015.1 1013.2
16 16.07 ЮВ 2 10 км н/о +17.5 +17.2 98 +18 +18 1014.8 1012.9
17 16.07 СВ 1 10 км н/о +17.3 +16.8 97 +19 +19 1014.7 1012.8
18 16.07 ЮЗ 1 7000 м дымка {дождь} н/о +16.7 +16.7 100 +18 +18 1014.9 1013.0 0.0
19 16.07 С 1 10 км слаб. дождь н/о +17.4 +17.3 99 +18 +18 1014.9 1013.0
20 16.07 ЮЗ 1 7000 м слаб. дождь н/о +17.4 +17.4 100 +19 +19 1015.1 1013.2
21 16.07 ЮЗ 1 10 км в посл. час дождь н/о +18.3 +17.8 97 +20 +20 1015.2 1013.3
22 16.07 В 1 11 км в посл. час дождь н/о +19.4 +18.2 93 +23 +23 комфорт 1014.9 1013.0
23 16.07 В 2 17 км н/о +20.6 +17.8 84 +25 +25 комфорт 1014.5 1012.6
00 17.07 В 2 20 км {дождь} н/о +21.3 +17.7 80 +25 +25 комфорт 1014.1 1012.2 +16.6 0.0
01 17.07 В 3 19 км н/о +21.9 +17.7 77 +26 +26 душно 1014.0 1012.1
02 17.07 В 3 19 км н/о +22.7 +18.7 78 +28 +28 душно 1013.6 1011.8
03 17.07 В 2 20 км н/о +22.5 +17.9 75 +28 +28 душно 1013.3 1011.5
04 17.07 СВ 2 14 км н/о +21.0 +17.6 81 +26 +26 душно 1013.4 1011.5
05 17.07 В 2 20 км н/о +21.3 +17.3 78 +25 +25 комфорт 1013.0 1011.1
06 17.07 В 2 20 км н/о +22.8 +17.9 74 +28 +28 душно 1012.6 1010.8
07 17.07 С 2 20 км н/о +22.4 +18.4 78 +28 +28 душно 1012.4 1010.6
08 17.07 С 3 13 км н/о +19.3 +17.5 89 +22 +22 комфорт 1012.5 1010.6
09 17.07 СВ 2 15 км н/о +20.1 +17.9 87 +24 +24 комфорт 1012.2 1010.3
11 17.07 ЮЗ 1 12 км н/о +18.6 +17.8 95 +21 +21 комфорт 1012.7 1010.8
12 17.07 ЮВ 1 10 км н/о +18.3 +17.7 96 +20 +20 1013.1 1011.2 +23.7
13 17.07 З 1 14 км н/о +18.1 +17.8 98 +20 +20 1013.3 1011.4
14 17.07 ЮЗ 1 16 км н/о +16.8 +16.5 98 +18 +18 1013.3 1011.4
15 17.07 ЮЗ 3 20 км н/о +17.6 +17.3 98 +18 +18 1013.1 1011.2
16 17.07 ЮЗ 2 20 км н/о +19.4 +18.1 92 +22 +22 комфорт 1012.8 1010.9
17 17.07 Ю 1 20 км н/о +18.8 +18.2 96 +21 +21 комфорт 1012.7 1010.8
18 17.07 ЮВ 2 20 км н/о +18.3 +17.5 95 +20 +20 1012.7 1010.8
19 17.07 С 1 20 км н/о +18.5 +18.0 97 +21 +21 комфорт 1012.8 1010.9
20 17.07 В 1 20 км н/о +19.0 +18.5 97 +22 +22 комфорт 1012.7 1010.8
21 17.07 СВ 1 20 км н/о +19.8 +18.6 93 +24 +24 комфорт 1012.6 1010.7
22 17.07 СВ 1 20 км н/о +19.0 +18.0 94 +22 +22 комфорт 1012.6 1010.7
23 17.07 СВ 1 20 км н/о +20.1 +18.2 89 +25 +25 комфорт 1012.5 1010.6
00 18.07 ЮВ 2 20 км н/о +21.2 +18.6 85 +26 +26 душно 1012.4 1010.5 +16.8
01 18.07 ЮВ 1 20 км н/о +22.6 +19.2 81 +29 +29 очень
душно
1012.2 1010.4
02 18.07 В 2 20 км н/о +21.8 +18.0 79 +26 +26 душно 1011.9 1010.0
03 18.07 ЮВ 1 20 км н/о +22.6 +18.6 78 +28 +28 душно 1011.6 1009.8
04 18.07 Ю 1 20 км в посл. час дождь н/о +22.1 +18.3 79 +27 +27 душно 1011.1 1009.3
05 18.07 В 2 20 км н/о +21.7 +17.7 78 +26 +26 душно 1011.1 1009.2
06 18.07 СЗ 4 20 км {дождь} н/о +19.6 +17.4 87 +22 +22 комфорт 1011.3 1009.4 0.0
07 18.07 С 3 20 км слаб. дождь н/о +19.7 +17.8 89 +23 +23 комфорт 1011.2 1009.3
08 18.07 С 3 20 км н/о +19.7 +17.8 89 +23 +23 комфорт 1011.5 1009.6
09 18.07 СВ 1 20 км {дождь} н/о +19.3 +17.8 91 +22 +22 комфорт 1011.5 1009.6
10 18.07 ЮВ 1 20 км н/о +18.8 +17.8 94 +22 +22 комфорт 1011.7 1009.8
11 18.07 ЮВ 1 20 км н/о +18.3 +17.7 96 +20 +20 1011.9 1010.0
12 18.07 ЮВ 1 20 км {дождь} н/о +17.6 +17.1 97 +19 +19 1012.1 1010.2 +24.7 0.0
13 18.07 ЮВ 1 20 км н/о +17.1 +17.1 100 +18 +18 1012.3 1010.4
14 18.07 Ю 1 20 км н/о +16.5 +16.4 99 +17 +17 1012.4 1010.5
15 18.07 Ю 2 20 км н/о +17.0 +17.0 100 +17 +17 1011.8 1009.9
16 18.07 ЮЗ 1 20 км н/о +17.5 +17.2 98 +19 +19 1011.2 1009.3
17 18.07 ЮЗ 2 20 км н/о +16.6 +16.6 100 +17 +17 1011.1 1009.2
18 18.07 Ю 1 18 км н/о +15.7 +15.7 100 +16 +16 1011.2 1009.3
19 18.07 ЮЗ 1 19 км н/о +15.1 +15.1 100 +16 +16 1011.1 1009.2
20 18.07 Ю 1 18 км н/о +15.8 +15.8 100 +17 +17 1011.3 1009.4
21 18.07 З 1 20 км н/о +18.6 +17.6 94 +21 +21 комфорт 1011.5 1009.6
22 18.07 В 2 20 км н/о +20.1 +18.8 92 +24 +24 комфорт 1011.5 1009.6
23 18.07 В 2 20 км н/о +21.9 +18.5 81 +27 +27 душно 1011.3 1009.5
00 19.07 В 2 20 км н/о +21.8 +18.8 83 +27 +27 душно 1011.4 1009.5 +14.9
01 19.07 В 2 20 км н/о +20.8 +17.4 81 +25 +25 комфорт 1011.5 1009.6
02 19.07 СВ 2 20 км н/о +21.7 +17.7 78 +26 +26 душно 1011.3 1009.4
03 19.07 С 2 20 км н/о +22.2 +18.0 77 +27 +27 душно 1011.0 1009.2
04 19.07 С 2 20 км н/о +23.0 +17.9 73 +28 +28 душно 1010.6 1008.8
05 19.07 С 3 20 км слаб. дождь н/о +20.1 +18.1 88 +24 +24 комфорт 1010.5 1008.6
06 19.07 С 2 16 км слаб. дождь н/о +19.4 +18.1 92 +22 +22 комфорт 1010.6 1008.7 0.0
07 19.07 ЮЗ 1 10 км слаб. дождь н/о +19.3 +19.1 99 +23 +23 комфорт 1011.1 1009.2
08 19.07 З 1 6000 м слаб. дождь н/о +19.9 +19.9 100 +25 +25 комфорт 1011.2 1009.3
09 19.07 С 1 15 км в посл. час дождь н/о +18.8 +18.6 99 +21 +21 комфорт 1011.7 1009.8
10 19.07 ЮВ 1 19 км н/о +19.2 +19.0 99 +22 +22 комфорт 1012.2 1010.3
11 19.07 ЮЗ 1 16 км н/о +18.9 +18.7 99 +22 +22 комфорт 1012.7 1010.8
12 19.07 З 1 13 км {дождь} н/о +18.8 +18.8 100 +22 +22 комфорт 1012.9 1011.0 +24.3 2
13 19.07 ЮЗ 1 10 км н/о +18.4 +18.4 100 +20 +20 1013.4 1011.5
14 19.07 ЮВ 1 13 км н/о +17.6 +17.6 100 +19 +19 1013.4 1011.5
15 19.07 ЮЗ 2 10 км н/о +17.4 +17.4 100 +18 +18 1013.4 1011.5
16 19.07 ЮЗ 2 14 км н/о +18.3 +18.3 100 +20 +20 1013.3 1011.4
17 19.07 З 1 15 км н/о +18.5 +18.5 100 +21 +21 комфорт 1013.2 1011.3
18 19.07 Ю 1 19 км н/о +18.8 +18.8 100 +22 +22 комфорт 1013.5 1011.6
19 19.07 Ю 1 15 км в посл. час дождь н/о +19.0 +19.0 100 +22 +22 комфорт 1014.1 1012.2
20 19.07 Ю 1 9000 м слаб. дождь н/о +19.6 +19.6 100 +24 +24 комфорт 1014.6 1012.7
21 19.07 ЮВ 1 6000 м слаб. дождь н/о +19.8 +19.8 100 +25 +25 комфорт 1015.0 1013.1
22 19.07 ЮВ 1 9000 м в посл. час дождь н/о +19.8 +19.8 100 +24 +24 комфорт 1015.1 1013.2
23 19.07 ЮВ 3 8000 м слаб. дождь н/о +19.6 +19.6 100 +23 +23 комфорт 1015.6 1013.7
00 20.07 ЮВ 3 20 км в посл. час дождь н/о +19.4 +19.4 100 +22 +22 комфорт 1015.7 1013.8 +17.2 2
01 20.07 ЮВ 4 20 км н/о +19.4 +19.3 99 +22 +22 комфорт 1015.7 1013.8
02 20.07 ЮВ 4 20 км н/о +19.4 +18.8 96 +22 +22 комфорт 1015.5 1013.6
03 20.07 В 3 20 км н/о +19.9 +18.9 94 +23 +23 комфорт 1015.6 1013.7
04 20.07 В 2 20 км н/о +19.8 +18.6 93 +23 +23 комфорт 1015.5 1013.6
05 20.07 В 2 20 км н/о +20.8 +18.6 87 +26 +26 душно 1015.5 1013.6
06 20.07 СВ 2 20 км н/о +19.7 +17.8 89 +23 +23 комфорт 1015.9 1014.0
07 20.07 СВ 2 20 км н/о +19.6 +18.3 92 +23 +23 комфорт 1016.0 1014.1
08 20.07 С 1 20 км н/о +19.4 +18.1 92 +23 +23 комфорт 1016.1 1014.2
09 20.07 В 1 20 км н/о +19.3 +18.1 93 +23 +23 комфорт 1016.1 1014.2
10 20.07 С 2 20 км н/о +18.2 +17.7 97 +19 +19 1016.3 1014.4
11 20.07 СЗ 1 20 км н/о +18.5 +18.0 97 +20 +20 1016.9 1015.0
12 20.07 З 2 20 км н/о +17.9 +17.6 98 +19 +19 1017.1 1015.2 +23.0
13 20.07 СВ 1 20 км н/о +17.3 +17.2 99 +18 +18 1017.1 1015.2
14 20.07 ЮЗ 1 20 км н/о +16.4 +16.4 100 +18 +18 1017.2 1015.3
15 20.07 З 2 20 км н/о +16.5 +16.5 100 +17 +17 1017.0 1015.1
16 20.07 В 1 20 км н/о +17.6 +17.5 99 +19 +19 1017.0 1015.1
17 20.07 Ю 2 20 км н/о +16.2 +16.2 100 +16 +16 1017.0 1015.1
18 20.07 ЮВ 2 100 м туман н/о +17.6 +17.6 100 +18 +18 1017.0 1015.1
19 20.07 З 1 4100 м в посл. час туман н/о +16.2 +16.2 100 +17 +17 1017.2 1015.3
20 20.07 З 1 20 км н/о +16.8 +16.8 100 +18 +18 1017.6 1015.7
21 20.07 штиль 0 20 км {туман} н/о +18.2 +18.0 99 +19 +19 1017.5 1015.6
22 20.07 СВ 1 20 км н/о +18.7 +17.7 94 +21 +21 комфорт 1017.7 1015.8
23 20.07 В 2 20 км н/о +20.2 +18.2 88 +24 +24 комфорт 1017.7 1015.8
00 21.07 В 2 20 км {туман} н/о +20.4 +18.7 90 +25 +25 комфорт 1017.8 1015.9 +16.0
01 21.07 СВ 2 20 км н/о +20.4 +18.9 91 +25 +25 комфорт 1017.7 1015.8
02 21.07 С 3 18 км н/о +20.1 +18.4 90 +24 +24 комфорт 1017.5 1015.6
03 21.07 СВ 2 20 км в посл. час туман н/о +19.4 +17.4 88 +22 +22 комфорт 1017.1 1015.2
04 21.07 В 2 20 км н/о +20.1 +17.9 87 +24 +24 комфорт 1016.6 1014.7
05 21.07 СВ 2 20 км н/о +21.2 +18.8 86 +26 +26 душно 1016.3 1014.4
06 21.07 СВ 2 20 км {туман} н/о +20.4 +17.6 84 +25 +25 комфорт 1015.8 1013.9
07 21.07 СВ 2 20 км н/о +19.5 +17.5 88 +23 +23 комфорт 1015.6 1013.7
08 21.07 В 1 20 км н/о +20.2 +17.8 86 +24 +24 комфорт 1015.2 1013.3
09 21.07 В 2 20 км н/о +19.4 +17.6 89 +22 +22 комфорт 1015.0 1013.1
10 21.07 СВ 1 20 км н/о +18.8 +17.7 93 +21 +21 комфорт 1014.7 1012.8
11 21.07 СЗ 2 20 км н/о +18.6 +17.5 93 +20 +20 1015.2 1013.3
12 21.07 З 2 20 км н/о +17.9 +17.3 96 +19 +19 1014.9 1013.0 +22.2
13 21.07 ЮЗ 1 20 км н/о +17.0 +16.4 96 +18 +18 1014.7 1012.8
14 21.07 ЮЗ 1 20 км н/о +16.4 +16.3 99 +17 +17 1014.5 1012.6
15 21.07 ЮЗ 1 20 км н/о +16.1 +16.1 100 +17 +17 1014.4 1012.5
16 21.07 ЮЗ 1 20 км н/о +16.0 +16.0 100 +17 +17 1014.4 1012.5
17 21.07 З 1 20 км н/о +15.6 +15.6 100 +16 +16 1013.6 1011.7
18 21.07 ЮЗ 2 20 км н/о +15.5 +15.5 100 +16 +16 1013.3 1011.4
19 21.07 С 1 20 км н/о +15.5 +15.5 100 +17 +17 1013.1 1011.2
20 21.07 ЮВ 1 20 км н/о +16.2 +16.2 100 +17 +17 1012.9 1011.0
21 21.07 ЮВ 1 20 км н/о +20.1 +18.2 89 +25 +25 комфорт 1012.8 1010.9
22 21.07 В 2 20 км н/о +20.3 +18.4 89 +25 +25 комфорт 1012.6 1010.7
23 21.07 В 2 20 км н/о +20.8 +18.6 87 +26 +26 душно 1012.5 1010.6
00 22.07 В 2 20 км н/о +21.1 +18.3 84 +25 +25 комфорт 1012.2 1010.3 +14.9
01 22.07 В 2 20 км н/о +23.3 +18.8 76 +30 +30 очень
душно
1011.5 1009.7
02 22.07 В 3 20 км н/о +21.5 +18.3 82 +26 +26 душно 1011.2 1009.3
03 22.07 В 4 20 км н/о +21.6 +18.2 81 +26 +26 душно 1010.8 1008.9
04 22.07 В 3 20 км н/о +22.1 +17.9 77 +27 +27 душно 1010.3 1008.5
05 22.07 В 2 20 км н/о +22.8 +17.3 71 +28 +28 душно 1009.7 1007.9
06 22.07 В 2 20 км н/о +22.7 +17.6 73 +28 +28 душно 1009.1 1007.3
07 22.07 С 2 20 км н/о +21.0 +17.4 80 +26 +26 душно 1008.7 1006.8
08 22.07 С 2 20 км н/о +21.1 +17.5 80 +25 +25 комфорт 1008.2 1006.4
09 22.07 С 2 20 км н/о +20.5 +17.5 83 +25 +25 комфорт 1008.2 1006.3
10 22.07 Ю 1 20 км н/о +20.0 +17.8 87 +24 +24 комфорт 1008.3 1006.4
11 22.07 З 1 20 км н/о +18.6 +17.6 94 +21 +21 комфорт 1008.6 1006.7
12 22.07 З 2 20 км н/о +18.3 +17.5 95 +20 +20 1008.8 1006.9 +24.0
13 22.07 Ю 2 20 км н/о +19.4 +18.1 92 +22 +22 комфорт 1008.6 1006.7
14 22.07 ЮЗ 3 20 км н/о +17.9 +16.8 93 +18 +18 1008.4 1006.5
15 22.07 ЮЗ 2 20 км н/о +19.1 +16.7 86 +21 +21 комфорт 1008.1 1006.2
16 22.07 ЮЗ 2 20 км н/о +19.3 +16.2 82 +22 +22 комфорт 1007.8 1005.9
17 22.07 Ю 1 20 км н/о +16.9 +16.3 96 +18 +18 1007.5 1005.6
18 22.07 СВ 1 20 км н/о +16.0 +14.9 93 +17 +17 1007.5 1005.6
19 22.07 ЮЗ 2 20 км н/о +16.0 +15.9 99 +16 +16 1007.4 1005.5
20 22.07 ЮЗ 1 20 км н/о +16.8 +16.2 96 +18 +18 1007.4 1005.5
21 22.07 ЮВ 1 20 км н/о +20.9 +17.3 80 +26 +26 душно 1007.6 1005.8
22 22.07 В 2 20 км н/о +21.0 +17.0 78 +26 +26 душно 1007.6 1005.8
23 22.07 В 1 20 км н/о +20.5 +17.5 83 +25 +25 комфорт 1007.6 1005.7
00 23.07 СВ 1 20 км н/о +20.9 +18.5 86 +26 +26 душно 1007.4 1005.6 +15.3
01 23.07 В 2 20 км слаб. дождь н/о +21.1 +18.7 86 +25 +25 комфорт 1007.0 1005.2
02 23.07 ЮВ 2 20 км слаб. дождь н/о +22.4 +18.0 76 +27 +27 душно 1006.8 1005.0
03 23.07 В 2 20 км в посл. час дождь н/о +21.2 +17.8 81 +25 +25 комфорт 1006.4 1004.6
04 23.07 ЮВ 3 20 км н/о +22.5 +17.6 74 +28 +28 душно 1006.0 1004.2
05 23.07 В 2 20 км н/о +22.0 +18.6 81 +27 +27 душно 1006.0 1004.2
06 23.07 В 2 20 км {дождь} н/о +22.3 +18.1 77 +27 +27 душно 1005.9 1004.1 0.0
07 23.07 В 2 20 км н/о +22.3 +17.9 76 +27 +27 душно 1005.8 1004.0
08 23.07 СВ 1 20 км н/о +20.9 +17.5 81 +26 +26 душно 1005.6 1003.8
09 23.07 В 1 20 км н/о +22.1 +17.9 77 +27 +27 душно 1005.6 1003.8
10 23.07 СВ 1 20 км н/о +20.5 +18.5 88 +26 +26 душно 1005.5 1003.7

 

Местоположение метеостанции Омурайсу (Япония): широта 44.58 долгота 142.96 высота над уровнем моря 15 м.

В архиве по умолчанию представлена погода в Омурайсу за последнюю неделю. Архивные данные за месяц целиком и за предыдущие месяцы, начиная с января 2011 года, Вы можете получить, выбрав интересующий диапазон дат из раскрывающегося списка и нажав кнопку "Ввод!".


*Определитесь, кто Вы:
робот инопланетянин человек

Внимание! Время в таблицах - всемирное. Для получения местного времени необходимо прибавить поправку, которая равна 9 ч.

Смотрите также архив погоды в соседних городах и на ближайших метеорологических станциях:

Погода в Момбецу (Япония) (40 км)
Погода в Китами Сачи (Япония) (49 км)
Погода в Асахикаве (Япония) (102 км)
Погода в Хаборо (Япония) (103 км)
Погода в Абасири (Япония) (122 км)
Погода в Румои (Япония) (127 км)
Погода в Вакканае (Япония) (137 км)
Погода на Мысе Крильон (Сахалинская область, Россия) (165 км)
Погода в Ивамидзаве (Япония) (178 км)
Погода в Обихиро (Япония) (186 км)

Пояснения к столбцам:

Ветер - указаны скорость ветра в м/с - средняя за 10 мин, порывы в срок и между сроками (в фигурных скобках) и направление, откуда дует ветер: С - северный, СВ - северо-восточный, В - восточный, ЮВ - юго-восточный, Ю - южный, ЮЗ - юго-западный, З - западный, СЗ - северо-западный.
Видимость - горизонтальная дальность видимости в метрах или километрах. При видимости от 1 до 10 км при отсутствии осадков обычно наблюдается дымка, при ухудшении видимости до 1 км и менее - туман. В сухую погоду видимость может ухудшаться дымом, пылью или мглою.
Явления - указаны атмосферные явления, наблюдавшиеся в срок или в последний час перед сроком; фигурными скобками обозначены явления, наблюдавшиеся между сроками (за 1-3 часа до срока); квадратными скобками обозначены град или гололедные отложения с указанием их диаметра в мм.
Облачность - указаны через наклонную черту общая и нижняя облачность в баллах и высота нижней границы облаков в метрах; квадратными скобками обозначены формы облаков: Ci - перистые, Cs - перисто-слоистые, Cc - перисто-кучевые, Ac - высококучевые, As - высокослоистые, Sc - слоисто-кучевые, Ns - слоисто-дождевые, Cu - кучевые, Cb - кучево-дождевые. Подробнее классификацию облаков см. в Атласе облаков (PDF).
T - Температура воздуха - температура, измеренная на высоте 2 м над землей.
Td - Температура точки росы - температура, при понижении до которой содержащийся в воздухе водяной пар достигнет насыщения.
f - Относительная влажность воздуха - влажноcть воздуха, измеренная на высоте 2 м над землей.
Te - Эффективная температура - температура, которую ощущает одетый по сезону человек в тени. Характеристика душности погоды. При расчете учитывается влияние влажности воздуха и скорости ветра на теплоощущения человека.
Tes - Эффективная температура на солнце - температура, которую ощущает человек, с поправкой на солнечный нагрев. Характеристика знойности погоды. Зависит от высоты солнца над горизонтом, облачности и скорости ветра. Ночью, в пасмурную погоду, а также при ветре 12 м/с и более поправка равна нулю.
P - Атмосферное давление - приведенное к уровню моря атмосферное давление.
Po - Атмосферное давление - измеренное на уровне метеостанции атмосферное давление.
Tmin - Минимальная температура - минимум температуры воздуха на высоте 2 м над землей.
Tmax - Максимальная температура - максимум температуры воздуха на высоте 2 м над землей.
R - Количество осадков - Количество выпавших осадков за период времени, мм. При наведении курсора мыши на число - период времени, за который выпало указанное количество осадков.
R24 - Количество осадков - Количество выпавших осадков за 24 часа, мм.
S - Снежный покров - Высота снежного покрова, см. При наведении курсора мыши на число - состояние снежного покрова и степень покрытия местности в баллах.